H-2A DEB, 28237

Orbit data source: Space-Track

H-2A DEB, 28237 is space debris in HEO originally from a launch on Mon, 04 Feb 2002 UTC launched from the Tanegashima Space Center (TNSTA). Debris objects in space refer to the collection of defunct objects orbiting the Earth. Examples of debris include non-operational satellites, rocket bodies, and fragments generated from explosions, collisions, or faulty payload assembly.

Loading next visibility...
Identifier
28237, 2002-003D
Orbit
HEO
Country
Flag of JPJP / JPN
Related business
Manufacturer
MHI Tobishima
Mission
Spacecraft
Bus & Motor
Unknown
Mass
~200 kg wet, ~200 kg dry
Launch date (UTC)
2002-02-04 (24 years ago)
Launch vehicle
Unknown
Launch site
Tanegashima Space Center (TNSTA)
Object type
Payload
Rocket body
Debris
Shape & HBR
Half Cyl, 2.0 m
Radar Cross Section
13.425 m², Large (>1 m²)

Expand to show TLE details & history
Last TLE update: 2 months ago

TLE from 2 months ago
0 H-2A DEB
1 28237U 02003D   25276.02309310  .00003246  00000-0  69640-2 0  9999
2 28237  28.6537 276.5309 7079464 268.6001  16.6909  2.46360584203450
Epoch: 2025-10-03T00:33Z
TLE epoch observation values (Epoch: 2025-10-03T00:33:15.243Z)
Latitude
-0.00055°
Longitude
-103.79798°
Altitude
5,356.687 km
Speed
7.122 km/s
True Right ascension
18h 25m 57s
True Declination
0° 00' 02"
Sunlit
Object was in daylight at epoch
Visualization orbit readout
Latitude
Unknown
Longitude
Unknown
Altitude
Unknown
Speed
Unknown
Apparent Right ascension
Unknown
Apparent Declination
Unknown
Sunlit
N/A
Visualization observer readout
Local Sidereal Time
05:21:41
Azimuth
Unknown
Elevation
Unknown
Doppler factor
Unknown
Orbital elements
Apogee altitude
33,179.334 km
Perigee altitude
386.069 km
Semi-major axis
23,160.839 km
Eccentricity
0.70795
Inclination
28.6537°
RAAN
276.5309°
Arg. of periapsis
268.6001°
True anomaly
91.13843°
Mean anomaly
16.6909°
Eccentric anomaly
45.74167°
Mean motion
0.61576 °/min
Orbital period
584.64 mins
BSTAR
0.006964
Loading maneuver chart data...
Computing Atmospheric mass density...
Loading historical data...
Loading historical data...
Loading historical data...
Loading historical data...
Loading historical data...
Loading historical data...
Loading historical data...
Other satellites on launch #3 in the year 2002 (2002-02-04 UTC)

Documentation

Showing up to 5 results
|